Tracking 19854 objects as of 23-Sep-2019
HD Live streaming from Space Station
objects crossing your sky now

APSTAR 1

Track APSTAR 1 now!
APSTAR 1 is classified as:


NORAD ID: 23185
Int'l Code: 1994-043A
Perigee: 36,022.6 km
Apogee: 36,069.8 km
Inclination: 10.8 °
Period: 1,449.0 minutes
Semi major axis: 42417 km
RCS: 25.1188 m2 (large)
Launch date: July 21, 1994
Source: People's Republic of China (PRC)
Launch site: Xichang Space Center, China (XSC)

24 C-band transponders.
aabbcc
Your satellite tracking list
Your tracking list is empty




NASA's NSSDC Master Catalog

Two Line Element Set (TLE):
1 23185U 94043A   19265.34740793 -.00000257  00000-0  00000+0 0  9993
2 23185  10.8215  34.1809 0005559 331.0821  70.4673  0.99377933 91990
Source of the keplerian elements: AFSPC